| time (UTC) | temp C | wind direction | speed KPH | gust KPH | rain 1hr cm | rain 24hr cm | rain mn cm | humidity % | barometer mb |
| 20260905040100 | 21 | 162 | 12.9 | 22.5 | 0.00 | 0.00 | 0.00 | 33 | 1000.1 |
| 20260905035600 | 21 | 159 | 12.9 | 22.5 | 0.00 | 0.00 | 0.00 | 33 | 1000.1 |
| 20260905035105 | 21 | 149 | 14.5 | 19.3 | 0.00 | 0.00 | 0.00 | 33 | 1000.1 |
| 20260905034611 | 21 | 132 | 11.3 | 17.7 | 0.00 | 0.00 | 0.00 | 34 | 999.9 |
| 20260905034058 | 22 | 136 | 12.9 | 17.7 | 0.00 | 0.00 | 0.00 | 31 | 999.9 |
| 20260905033559 | 22 | 157 | 9.7 | 24.1 | 0.00 | 0.00 | 0.00 | 31 | 999.9 |
| 20260905033101 | 23 | 119 | 11.3 | 32.2 | 0.00 | 0.00 | 0.00 | 31 | 999.9 |
| 20260905032559 | 24 | 144 | 16.1 | 32.2 | 0.00 | 0.00 | 0.00 | 29 | 999.8 |
| 20260905032058 | 24 | 157 | 17.7 | 30.6 | 0.00 | 0.00 | 0.00 | 29 | 999.7 |
| 20260905031606 | 25 | 179 | 17.7 | 35.4 | 0.00 | 0.00 | 0.00 | 28 | 999.7 |
| 20260905031058 | 25 | 182 | 20.9 | 35.4 | 0.00 | 0.00 | 0.00 | 28 | 999.6 |
| 20260905030558 | 24 | 180 | 17.7 | 30.6 | 0.00 | 0.00 | 0.00 | 28 | 999.6 |
| 20260905030058 | 24 | 165 | 14.5 | 27.4 | 0.00 | 0.00 | 0.00 | 28 | 999.4 |
| 20260905025558 | 24 | 169 | 12.9 | 20.9 | 0.00 | 0.00 | 0.00 | 28 | 999.4 |
| 20260905025059 | 24 | 145 | 12.9 | 29.0 | 0.00 | 0.00 | 0.00 | 28 | 999.2 |
| 20260905024602 | 24 | 161 | 16.1 | 30.6 | 0.00 | 0.00 | 0.00 | 28 | 999.0 |
| 20260905024057 | 24 | 170 | 17.7 | 32.2 | 0.00 | 0.00 | 0.00 | 28 | 999.0 |
| 20260905023559 | 23 | 147 | 12.9 | 27.4 | 0.00 | 0.00 | 0.00 | 29 | 998.9 |
| 20260905023100 | 23 | 143 | 16.1 | 27.4 | 0.00 | 0.00 | 0.00 | 29 | 998.8 |
| 20260905022556 | 23 | 141 | 14.5 | 22.5 | 0.00 | 0.00 | 0.00 | 30 | 998.7 |
| 20260905022058 | 24 | 135 | 16.1 | 25.7 | 0.00 | 0.00 | 0.00 | 30 | 998.7 |
| 20260905021558 | 24 | 148 | 16.1 | 25.7 | 0.00 | 0.00 | 0.00 | 29 | 998.7 |
| 20260905021055 | 25 | 152 | 19.3 | 29.0 | 0.00 | 0.00 | 0.00 | 28 | 998.6 |
| 20260905020555 | 25 | 152 | 20.9 | 29.0 | 0.00 | 0.00 | 0.00 | 28 | 998.6 |
| 20260905020055 | 25 | 152 | 16.1 | 24.1 | 0.00 | 0.00 | 0.00 | 28 | 998.6 |
| 20260905015555 | 25 | 166 | 17.7 | 27.4 | 0.00 | 0.00 | 0.00 | 27 | 998.5 |
| 20260905015055 | 25 | 159 | 20.9 | 33.8 | 0.00 | 0.00 | 0.00 | 28 | 998.4 |
| 20260905014554 | 25 | 157 | 20.9 | 37.0 | 0.00 | 0.00 | 0.00 | 28 | 998.4 |
| 20260905014054 | 26 | 156 | 20.9 | 37.0 | 0.00 | 0.00 | 0.00 | 28 | 998.4 |
| 20260905013554 | 26 | 172 | 19.3 | 32.2 | 0.00 | 0.00 | 0.00 | 28 | 998.4 |
| 20260905013054 | 26 | 161 | 22.5 | 33.8 | 0.00 | 0.00 | 0.00 | 27 | 998.3 |
| 20260905012554 | 26 | 164 | 20.9 | 40.2 | 0.00 | 0.00 | 0.00 | 28 | 998.3 |
| 20260905012054 | 27 | 162 | 29.0 | 40.2 | 0.00 | 0.00 | 0.00 | 27 | 998.3 |
| 20260905011556 | 27 | 169 | 24.1 | 40.2 | 0.00 | 0.00 | 0.00 | 27 | 998.3 |
| 20260905011054 | 27 | 134 | 30.6 | 45.1 | 0.00 | 0.00 | 0.00 | 27 | 998.3 |
| 20260905010553 | 27 | 179 | 27.4 | 48.3 | 0.00 | 0.00 | 0.00 | 27 | 998.3 |
| 20260905010054 | 27 | 180 | 35.4 | 48.3 | 0.00 | 0.00 | 0.00 | 27 | 998.3 |
| 20260905005552 | 27 | 181 | 22.5 | 43.5 | 0.00 | 0.00 | 0.00 | 26 | 998.2 |
| 20260905005052 | 27 | 193 | 29.0 | 43.5 | 0.00 | 0.00 | 0.00 | 26 | 998.2 |
| 20260905004552 | 28 | 167 | 25.7 | 45.1 | 0.00 | 0.00 | 0.00 | 26 | 998.3 |
| 20260905004049 | 28 | 176 | 29.0 | 45.1 | 0.00 | 0.00 | 0.00 | 26 | 998.3 |
| 20260905003548 | 28 | 172 | 32.2 | 46.7 | 0.00 | 0.00 | 0.00 | 27 | 998.2 |
| 20260905003049 | 28 | 181 | 30.6 | 61.2 | 0.00 | 0.00 | 0.00 | 27 | 998.2 |
| 20260905002549 | 28 | 171 | 40.2 | 61.2 | 0.00 | 0.00 | 0.00 | 26 | 998.3 |
| 20260905002046 | 28 | 173 | 30.6 | 49.9 | 0.00 | 0.00 | 0.00 | 26 | 998.3 |
| 20260905001554 | 28 | 180 | 35.4 | 49.9 | 0.00 | 0.00 | 0.00 | 25 | 998.4 |
| 20260905001045 | 28 | 159 | 24.1 | 41.8 | 0.00 | 0.00 | 0.00 | 26 | 998.3 |
| 20260905000545 | 28 | 163 | 29.0 | 38.6 | 0.00 | 0.00 | 0.00 | 26 | 998.3 |
| 20260905000048 | 28 | 172 | 29.0 | 48.3 | 0.00 | 0.00 | 0.00 | 26 | 998.3 |
| 20260904235548 | 28 | 155 | 30.6 | 56.3 | 0.00 | 0.00 | 0.00 | 26 | 998.4 |
| 20260904235043 | 28 | 196 | 38.6 | 56.3 | 0.00 | 0.00 | 0.00 | 26 | 998.4 |
| 20260904234543 | 28 | 153 | 30.6 | 49.9 | 0.00 | 0.00 | 0.00 | 26 | 998.4 |
| 20260904234042 | 28 | 174 | 32.2 | 48.3 | 0.00 | 0.00 | 0.00 | 26 | 998.5 |
| 20260904233542 | 28 | 175 | 25.7 | 46.7 | 0.00 | 0.00 | 0.00 | 26 | 998.5 |
| 20260904233044 | 28 | 189 | 32.2 | 45.1 | 0.00 | 0.00 | 0.00 | 25 | 998.5 |
| 20260904232541 | 28 | 170 | 29.0 | 49.9 | 0.00 | 0.00 | 0.00 | 25 | 998.5 |
| 20260904232041 | 29 | 153 | 37.0 | 49.9 | 0.00 | 0.00 | 0.00 | 25 | 998.6 |
| 20260904231551 | 29 | 174 | 33.8 | 45.1 | 0.00 | 0.00 | 0.00 | 24 | 998.5 |
| 20260904231039 | 28 | 181 | 30.6 | 51.5 | 0.00 | 0.00 | 0.00 | 25 | 998.6 |
| 20260904230539 | 29 | 140 | 33.8 | 49.9 | 0.00 | 0.00 | 0.00 | 24 | 998.5 |
| 20260904230039 | 29 | 146 | 33.8 | 49.9 | 0.00 | 0.00 | 0.00 | 25 | 998.7 |
| 20260904225539 | 29 | 159 | 32.2 | 48.3 | 0.00 | 0.00 | 0.00 | 24 | 998.6 |
| 20260904225036 | 29 | 145 | 29.0 | 48.3 | 0.00 | 0.00 | 0.00 | 25 | 998.6 |
| 20260904224546 | 29 | 177 | 30.6 | 49.9 | 0.00 | 0.00 | 0.00 | 25 | 998.8 |
| 20260904224037 | 28 | 151 | 30.6 | 40.2 | 0.00 | 0.00 | 0.00 | 24 | 998.8 |
| 20260904223534 | 28 | 158 | 22.5 | 43.5 | 0.00 | 0.00 | 0.00 | 26 | 998.8 |
| 20260904223036 | 28 | 145 | 33.8 | 56.3 | 0.00 | 0.00 | 0.00 | 26 | 998.8 |
| 20260904222536 | 28 | 138 | 37.0 | 48.3 | 0.00 | 0.00 | 0.00 | 25 | 998.9 |
| 20260904222032 | 28 | 151 | 37.0 | 53.1 | 0.00 | 0.00 | 0.00 | 25 | 999.0 |
| 20260904221532 | 28 | 179 | 32.2 | 51.5 | 0.00 | 0.00 | 0.00 | 24 | 999.1 |
| 20260904221032 | 28 | 145 | 32.2 | 49.9 | 0.00 | 0.00 | 0.00 | 26 | 999.0 |
| 20260904220532 | 28 | 145 | 32.2 | 43.5 | 0.00 | 0.00 | 0.00 | 25 | 999.1 |
| 20260904220030 | 28 | 169 | 32.2 | 49.9 | 0.00 | 0.00 | 0.00 | 25 | 999.1 |
| 20260904215530 | 28 | 143 | 32.2 | 49.9 | 0.00 | 0.00 | 0.00 | 26 | 999.1 |
| 20260904215029 | 28 | 138 | 29.0 | 56.3 | 0.00 | 0.00 | 0.00 | 26 | 999.3 |
| 20260904214528 | 28 | 168 | 29.0 | 56.3 | 0.00 | 0.00 | 0.00 | 25 | 999.3 |
| 20260904214026 | 28 | 144 | 25.7 | 53.1 | 0.00 | 0.00 | 0.00 | 26 | 999.3 |
| 20260904213529 | 27 | 157 | 38.6 | 53.1 | 0.00 | 0.00 | 0.00 | 25 | 999.4 |
| 20260904213028 | 28 | 140 | 33.8 | 51.5 | 0.00 | 0.00 | 0.00 | 25 | 999.4 |
| 20260904212527 | 28 | 136 | 30.6 | 49.9 | 0.00 | 0.00 | 0.00 | 25 | 999.5 |
| 20260904212024 | 28 | 150 | 35.4 | 49.9 | 0.00 | 0.00 | 0.00 | 25 | 999.7 |
| 20260904211523 | 28 | 166 | 25.7 | 38.6 | 0.00 | 0.00 | 0.00 | 24 | 999.6 |
| 20260904211026 | 28 | 165 | 30.6 | 46.7 | 0.00 | 0.00 | 0.00 | 25 | 999.8 |
| 20260904210521 | 28 | 135 | 29.0 | 46.7 | 0.00 | 0.00 | 0.00 | 25 | 999.7 |
| 20260904210021 | 28 | 177 | 30.6 | 43.5 | 0.00 | 0.00 | 0.00 | 25 | 999.9 |
| 20260904205521 | 28 | 161 | 30.6 | 40.2 | 0.00 | 0.00 | 0.00 | 25 | 999.8 |
| 20260904205020 | 27 | 163 | 27.4 | 56.3 | 0.00 | 0.00 | 0.00 | 25 | 999.9 |
| 20260904204518 | 27 | 147 | 35.4 | 56.3 | 0.00 | 0.00 | 0.00 | 25 | 999.9 |
| 20260904204018 | 27 | 174 | 33.8 | 48.3 | 0.00 | 0.00 | 0.00 | 24 | 1000.1 |
| 20260904203518 | 28 | 154 | 25.7 | 45.1 | 0.00 | 0.00 | 0.00 | 25 | 1000.1 |
| 20260904203016 | 27 | 171 | 27.4 | 41.8 | 0.00 | 0.00 | 0.00 | 25 | 1000.1 |
| 20260904202517 | 27 | 174 | 30.6 | 45.1 | 0.00 | 0.00 | 0.00 | 27 | 1000.0 |
| 20260904202014 | 26 | 124 | 24.1 | 48.3 | 0.00 | 0.00 | 0.00 | 27 | 1000.2 |
| 20260904201514 | 26 | 136 | 32.2 | 51.5 | 0.00 | 0.00 | 0.00 | 27 | 1000.2 |
| 20260904201013 | 26 | 147 | 32.2 | 54.7 | 0.00 | 0.00 | 0.00 | 27 | 1000.4 |
| 20260904200517 | 26 | 163 | 29.0 | 51.5 | 0.00 | 0.00 | 0.00 | 28 | 1000.4 |
| 20260904200013 | 26 | 163 | 29.0 | 51.5 | 0.00 | 0.00 | 0.00 | 26 | 1000.6 |
| 20260904195513 | 26 | 170 | 32.2 | 61.2 | 0.00 | 0.00 | 0.00 | 26 | 1000.5 |
| 20260904195012 | 26 | 188 | 35.4 | 61.2 | 0.00 | 0.00 | 0.00 | 26 | 1000.5 |
| 20260904194512 | 26 | 141 | 29.0 | 49.9 | 0.00 | 0.00 | 0.00 | 26 | 1000.5 |
| 20260904194012 | 26 | 163 | 37.0 | 56.3 | 0.00 | 0.00 | 0.00 | 25 | 1000.6 |
| 20260904193512 | 27 | 142 | 38.6 | 56.3 | 0.00 | 0.00 | 0.00 | 25 | 1000.6 |
| 20260904193011 | 27 | 141 | 32.2 | 46.7 | 0.00 | 0.00 | 0.00 | 24 | 1000.6 |
| 20260904192510 | 27 | 179 | 33.8 | 46.7 | 0.00 | 0.00 | 0.00 | 25 | 1000.7 |
| 20260904192010 | 26 | 165 | 37.0 | 53.1 | 0.00 | 0.00 | 0.00 | 26 | 1000.8 |
| 20260904191511 | 26 | 132 | 33.8 | 53.1 | 0.00 | 0.00 | 0.00 | 26 | 1000.7 |
| 20260904191009 | 26 | 151 | 30.6 | 49.9 | 0.00 | 0.00 | 0.00 | 28 | 1000.8 |
| 20260904190509 | 26 | 132 | 35.4 | 49.9 | 0.00 | 0.00 | 0.00 | 28 | 1000.9 |
| 20260904190010 | 26 | 150 | 25.7 | 49.9 | 0.00 | 0.00 | 0.00 | 27 | 1001.1 |
| 20260904185507 | 25 | 139 | 35.4 | 54.7 | 0.00 | 0.00 | 0.00 | 28 | 1001.2 |
| 20260904185007 | 25 | 149 | 29.0 | 54.7 | 0.00 | 0.00 | 0.00 | 29 | 1001.3 |
| 20260904184507 | 25 | 122 | 29.0 | 49.9 | 0.00 | 0.00 | 0.00 | 28 | 1001.2 |
| 20260904184007 | 25 | 164 | 33.8 | 49.9 | 0.00 | 0.00 | 0.00 | 27 | 1001.2 |
| 20260904183506 | 25 | 150 | 41.8 | 53.1 | 0.00 | 0.00 | 0.00 | 26 | 1001.3 |
| 20260904183012 | 26 | 159 | 32.2 | 46.7 | 0.00 | 0.00 | 0.00 | 27 | 1001.3 |
| 20260904182505 | 26 | 184 | 33.8 | 46.7 | 0.00 | 0.00 | 0.00 | 26 | 1001.4 |
| 20260904182005 | 25 | 134 | 38.6 | 49.9 | 0.00 | 0.00 | 0.00 | 28 | 1001.3 |
| 20260904181508 | 26 | 181 | 38.6 | 48.3 | 0.00 | 0.00 | 0.00 | 26 | 1001.4 |
| 20260904181008 | 26 | 151 | 29.0 | 48.3 | 0.00 | 0.00 | 0.00 | 27 | 1001.3 |
| 20260904180503 | 25 | 182 | 38.6 | 53.1 | 0.00 | 0.00 | 0.00 | 26 | 1001.5 |
| 20260904180004 | 25 | 165 | 37.0 | 56.3 | 0.00 | 0.00 | 0.00 | 27 | 1001.6 |
| 20260904175505 | 25 | 145 | 41.8 | 56.3 | 0.00 | 0.00 | 0.00 | 28 | 1001.5 |
| 20260904175002 | 25 | 161 | 35.4 | 56.3 | 0.00 | 0.00 | 0.00 | 27 | 1001.6 |
| 20260904174501 | 25 | 173 | 35.4 | 49.9 | 0.00 | 0.00 | 0.00 | 27 | 1001.6 |
| 20260904174001 | 25 | 182 | 41.8 | 51.5 | 0.00 | 0.00 | 0.00 | 27 | 1001.6 |
| 20260904173503 | 25 | 145 | 33.8 | 49.9 | 0.00 | 0.00 | 0.00 | 29 | 1001.6 |
| 20260904173003 | 25 | 168 | 35.4 | 53.1 | 0.00 | 0.00 | 0.00 | 29 | 1001.6 |
| 20260904172503 | 25 | 164 | 35.4 | 56.3 | 0.00 | 0.00 | 0.00 | 29 | 1001.5 |
| 20260904172001 | 25 | 169 | 32.2 | 56.3 | 0.00 | 0.00 | 0.00 | 30 | 1001.6 |
| 20260904171602 | 25 | 147 | 40.2 | 57.9 | 0.00 | 0.00 | 0.00 | 28 | 1001.6 |
| 20260904171500 | 25 | 163 | 35.4 | 57.9 | 0.00 | 0.00 | 0.00 | 29 | 1001.6 |
| 20260904171100 | 24 | 145 | 38.6 | 57.9 | 0.00 | 0.00 | 0.00 | 29 | 1001.6 |
| 20260904170600 | 25 | 183 | 37.0 | 49.9 | 0.00 | 0.00 | 0.00 | 27 | 1001.6 |
| 20260904170100 | 24 | 165 | 40.2 | 62.8 | 0.00 | 0.00 | 0.00 | 29 | 1001.5 |
| 20260904165600 | 24 | 158 | 41.8 | 62.8 | 0.00 | 0.00 | 0.00 | 28 | 1001.6 |
| 20260904165100 | 25 | 138 | 38.6 | 57.9 | 0.00 | 0.00 | 0.00 | 28 | 1001.6 |
| 20260904164558 | 25 | 182 | 33.8 | 46.7 | 0.00 | 0.00 | 0.00 | 27 | 1001.7 |
| 20260904164057 | 25 | 180 | 32.2 | 49.9 | 0.00 | 0.00 | 0.00 | 26 | 1001.7 |
| 20260904163557 | 24 | 171 | 32.2 | 49.9 | 0.00 | 0.00 | 0.00 | 27 | 1001.6 |
| 20260904163100 | 24 | 132 | 33.8 | 51.5 | 0.00 | 0.00 | 0.00 | 26 | 1001.8 |
| 20260904162558 | 24 | 182 | 37.0 | 49.9 | 0.00 | 0.00 | 0.00 | 24 | 1001.8 |
| 20260904162057 | 24 | 159 | 29.0 | 45.1 | 0.00 | 0.00 | 0.00 | 24 | 1001.8 |
| 20260904161609 | 24 | 165 | 35.4 | 45.1 | 0.00 | 0.00 | 0.00 | 24 | 1001.8 |
| 20260904161056 | 24 | 165 | 30.6 | 45.1 | 0.00 | 0.00 | 0.00 | 24 | 1001.8 |
| 20260904160556 | 24 | 171 | 22.5 | 46.7 | 0.00 | 0.00 | 0.00 | 25 | 1001.7 |
| 20260904160100 | 23 | 168 | 33.8 | 46.7 | 0.00 | 0.00 | 0.00 | 24 | 1001.8 |
| 20260904155555 | 23 | 155 | 29.0 | 46.7 | 0.00 | 0.00 | 0.00 | 25 | 1001.8 |
| 20260904155054 | 23 | 168 | 29.0 | 43.5 | 0.00 | 0.00 | 0.00 | 28 | 1001.7 |
| 20260904154553 | 23 | 181 | 30.6 | 43.5 | 0.00 | 0.00 | 0.00 | 24 | 1001.8 |
| 20260904154052 | 23 | 145 | 27.4 | 38.6 | 0.00 | 0.00 | 0.00 | 27 | 1001.7 |
| 20260904153551 | 23 | 156 | 25.7 | 37.0 | 0.00 | 0.00 | 0.00 | 28 | 1001.7 |
| 20260904153049 | 22 | 161 | 20.9 | 41.8 | 0.00 | 0.00 | 0.00 | 28 | 1001.8 |
| 20260904152549 | 22 | 136 | 25.7 | 48.3 | 0.00 | 0.00 | 0.00 | 28 | 1001.8 |
| 20260904152049 | 22 | 165 | 29.0 | 46.7 | 0.00 | 0.00 | 0.00 | 27 | 1001.9 |
| 20260904151550 | 22 | 156 | 25.7 | 41.8 | 0.00 | 0.00 | 0.00 | 26 | 1001.8 |
| 20260904151046 | 22 | 174 | 29.0 | 49.9 | 0.00 | 0.00 | 0.00 | 27 | 1001.9 |
| 20260904150546 | 22 | 163 | 37.0 | 49.9 | 0.00 | 0.00 | 0.00 | 27 | 1001.8 |
| 20260904150046 | 21 | 138 | 27.4 | 40.2 | 0.00 | 0.00 | 0.00 | 31 | 1001.9 |
| 20260904145546 | 21 | 143 | 24.1 | 38.6 | 0.00 | 0.00 | 0.00 | 30 | 1001.9 |
| 20260904145046 | 21 | 121 | 27.4 | 38.6 | 0.00 | 0.00 | 0.00 | 34 | 1002.0 |
| 20260904144602 | 20 | 150 | 22.5 | 30.6 | 0.00 | 0.00 | 0.00 | 34 | 1001.9 |
| 20260904144044 | 20 | 145 | 19.3 | 38.6 | 0.00 | 0.00 | 0.00 | 34 | 1001.8 |
| 20260904143544 | 20 | 134 | 22.5 | 38.6 | 0.00 | 0.00 | 0.00 | 34 | 1001.9 |
| 20260904143055 | 20 | 143 | 24.1 | 38.6 | 0.00 | 0.00 | 0.00 | 34 | 1001.8 |
| 20260904142544 | 19 | 135 | 27.4 | 38.6 | 0.00 | 0.00 | 0.00 | 33 | 1001.9 |
| 20260904142042 | 19 | 116 | 20.9 | 29.0 | 0.00 | 0.00 | 0.00 | 34 | 1002.0 |
| 20260904141542 | 19 | 122 | 19.3 | 32.2 | 0.00 | 0.00 | 0.00 | 34 | 1001.9 |
| 20260904141044 | 19 | 134 | 17.7 | 33.8 | 0.00 | 0.00 | 0.00 | 34 | 1001.9 |
| 20260904140543 | 19 | 130 | 24.1 | 30.6 | 0.00 | 0.00 | 0.00 | 33 | 1001.9 |
| 20260904140041 | 19 | 153 | 20.9 | 32.2 | 0.00 | 0.00 | 0.00 | 32 | 1001.9 |
| 20260904135541 | 19 | 143 | 19.3 | 30.6 | 0.00 | 0.00 | 0.00 | 30 | 1001.8 |
| 20260904135041 | 18 | 136 | 19.3 | 30.6 | 0.00 | 0.00 | 0.00 | 32 | 1001.7 |
| 20260904134539 | 18 | 145 | 22.5 | 32.2 | 0.00 | 0.00 | 0.00 | 32 | 1001.7 |
| 20260904134038 | 17 | 131 | 20.9 | 30.6 | 0.00 | 0.00 | 0.00 | 33 | 1001.7 |
| 20260904133541 | 17 | 124 | 24.1 | 30.6 | 0.00 | 0.00 | 0.00 | 32 | 1001.5 |
| 20260904133038 | 17 | 136 | 19.3 | 27.4 | 0.00 | 0.00 | 0.00 | 31 | 1001.5 |
| 20260904132537 | 17 | 151 | 16.1 | 32.2 | 0.00 | 0.00 | 0.00 | 32 | 1001.5 |
| 20260904132038 | 17 | 124 | 22.5 | 32.2 | 0.00 | 0.00 | 0.00 | 32 | 1001.5 |
| 20260904131535 | 17 | 139 | 20.9 | 32.2 | 0.00 | 0.00 | 0.00 | 33 | 1001.5 |
| 20260904131034 | 17 | 126 | 16.1 | 22.5 | 0.00 | 0.00 | 0.00 | 33 | 1001.4 |
| 20260904130533 | 17 | 163 | 14.5 | 25.7 | 0.00 | 0.00 | 0.00 | 31 | 1001.4 |
| 20260904130032 | 17 | 153 | 16.1 | 24.1 | 0.00 | 0.00 | 0.00 | 31 | 1001.4 |
| 20260904125531 | 17 | 143 | 17.7 | 24.1 | 0.00 | 0.00 | 0.00 | 31 | 1001.3 |
| 20260904125030 | 18 | 131 | 17.7 | 29.0 | 0.00 | 0.00 | 0.00 | 30 | 1001.3 |
| 20260904124529 | 18 | 170 | 20.9 | 32.2 | 0.00 | 0.00 | 0.00 | 30 | 1001.3 |
| 20260904124027 | 18 | 130 | 20.9 | 32.2 | 0.00 | 0.00 | 0.00 | 30 | 1001.2 |
| 20260904123528 | 18 | 134 | 19.3 | 35.4 | 0.00 | 0.00 | 0.00 | 29 | 1001.1 |
| 20260904123028 | 19 | 133 | 20.9 | 35.4 | 0.00 | 0.00 | 0.00 | 29 | 1001.1 |
| 20260904122530 | 19 | 110 | 22.5 | 35.4 | 0.00 | 0.00 | 0.00 | 28 | 1001.1 |
| 20260904122026 | 20 | 131 | 24.1 | 35.4 | 0.00 | 0.00 | 0.00 | 28 | 1001.0 |
| 20260904121526 | 19 | 134 | 20.9 | 32.2 | 0.00 | 0.00 | 0.00 | 29 | 1001.0 |
| 20260904121027 | 18 | 148 | 20.9 | 38.6 | 0.00 | 0.00 | 0.00 | 30 | 1000.9 |
| 20260904120524 | 18 | 208 | 20.9 | 29.0 | 0.00 | 0.00 | 0.00 | 29 | 1001.0 |
| 20260904120024 | 18 | 154 | 19.3 | 29.0 | 0.00 | 0.00 | 0.00 | 29 | 1001.1 |
| 20260904115523 | 18 | 151 | 17.7 | 29.0 | 0.00 | 0.00 | 0.00 | 29 | 1001.2 |
| 20260904115023 | 17 | 161 | 19.3 | 25.7 | 0.00 | 0.00 | 0.00 | 29 | 1001.2 |
| 20260904114521 | 18 | 147 | 16.1 | 27.4 | 0.00 | 0.00 | 0.00 | 29 | 1001.2 |
| 20260904114021 | 18 | 161 | 19.3 | 27.4 | 0.00 | 0.00 | 0.00 | 29 | 1001.2 |
| 20260904113521 | 18 | 145 | 17.7 | 27.4 | 0.00 | 0.00 | 0.00 | 29 | 1001.2 |
| 20260904113020 | 18 | 149 | 16.1 | 27.4 | 0.00 | 0.00 | 0.00 | 28 | 1001.1 |
| 20260904112517 | 18 | 160 | 16.1 | 25.7 | 0.00 | 0.00 | 0.00 | 27 | 1001.2 |
| 20260904112017 | 19 | 142 | 20.9 | 37.0 | 0.00 | 0.00 | 0.00 | 27 | 1001.2 |
| 20260904111516 | 19 | 155 | 19.3 | 37.0 | 0.00 | 0.00 | 0.00 | 26 | 1001.1 |
| 20260904111016 | 19 | 145 | 20.9 | 30.6 | 0.00 | 0.00 | 0.00 | 27 | 1001.1 |
| 20260904110515 | 19 | 161 | 20.9 | 33.8 | 0.00 | 0.00 | 0.00 | 27 | 1001.2 |
| 20260904110015 | 20 | 166 | 22.5 | 33.8 | 0.00 | 0.00 | 0.00 | 26 | 1001.3 |
| 20260904105515 | 20 | 142 | 19.3 | 46.7 | 0.00 | 0.00 | 0.00 | 26 | 1001.1 |
| 20260904105014 | 20 | 148 | 24.1 | 40.2 | 0.00 | 0.00 | 0.00 | 26 | 1001.2 |
| 20260904104514 | 20 | 147 | 24.1 | 33.8 | 0.00 | 0.00 | 0.00 | 27 | 1001.1 |
| 20260904104013 | 20 | 152 | 20.9 | 35.4 | 0.00 | 0.00 | 0.00 | 27 | 1001.1 |
| 20260904103513 | 20 | 142 | 27.4 | 43.5 | 0.00 | 0.00 | 0.00 | 25 | 1001.1 |
| 20260904103013 | 20 | 165 | 24.1 | 43.5 | 0.00 | 0.00 | 0.00 | 26 | 1001.1 |
| 20260904102512 | 20 | 129 | 29.0 | 40.2 | 0.00 | 0.00 | 0.00 | 26 | 1001.2 |
| 20260904102013 | 21 | 142 | 22.5 | 33.8 | 0.00 | 0.00 | 0.00 | 25 | 1001.2 |
| 20260904101512 | 20 | 136 | 19.3 | 37.0 | 0.00 | 0.00 | 0.00 | 26 | 1001.1 |
| 20260904101012 | 20 | 128 | 22.5 | 40.2 | 0.00 | 0.00 | 0.00 | 25 | 1001.1 |
| 20260904100512 | 21 | 170 | 16.1 | 40.2 | 0.00 | 0.00 | 0.00 | 24 | 1001.1 |
| 20260904100012 | 21 | 174 | 20.9 | 33.8 | 0.00 | 0.00 | 0.00 | 24 | 1001.1 |
| 20260904095512 | 20 | 151 | 22.5 | 30.6 | 0.00 | 0.00 | 0.00 | 26 | 1001.1 |
| 20260904095013 | 20 | 147 | 20.9 | 30.6 | 0.00 | 0.00 | 0.00 | 25 | 1001.1 |
| 20260904094514 | 20 | 165 | 22.5 | 30.6 | 0.00 | 0.00 | 0.00 | 25 | 1001.1 |
| 20260904094010 | 20 | 156 | 19.3 | 32.2 | 0.00 | 0.00 | 0.00 | 25 | 1001.2 |
| 20260904093510 | 20 | 138 | 20.9 | 33.8 | 0.00 | 0.00 | 0.00 | 25 | 1001.2 |
| 20260904093009 | 20 | 142 | 19.3 | 32.2 | 0.00 | 0.00 | 0.00 | 26 | 1001.1 |
| 20260904092509 | 20 | 130 | 20.9 | 30.6 | 0.00 | 0.00 | 0.00 | 26 | 1001.2 |
| 20260904092008 | 20 | 168 | 19.3 | 27.4 | 0.00 | 0.00 | 0.00 | 26 | 1001.2 |
| 20260904091523 | 20 | 138 | 17.7 | 27.4 | 0.00 | 0.00 | 0.00 | 26 | 1001.1 |
| 20260904091007 | 20 | 158 | 20.9 | 32.2 | 0.00 | 0.00 | 0.00 | 24 | 1001.1 |
| 20260904090509 | 20 | 154 | 25.7 | 33.8 | 0.00 | 0.00 | 0.00 | 25 | 1001.1 |
| 20260904090013 | 20 | 135 | 24.1 | 32.2 | 0.00 | 0.00 | 0.00 | 25 | 1001.1 |
| 20260904085507 | 21 | 124 | 22.5 | 40.2 | 0.00 | 0.00 | 0.00 | 25 | 1001.2 |
| 20260904085011 | 21 | 132 | 29.0 | 40.2 | 0.00 | 0.00 | 0.00 | 24 | 1001.1 |
| 20260904084610 | 21 | 132 | 24.1 | 38.6 | 0.00 | 0.00 | 0.00 | 24 | 1001.1 |
| 20260904084008 | 21 | 130 | 27.4 | 38.6 | 0.00 | 0.00 | 0.00 | 23 | 1001.1 |
| 20260904083504 | 21 | 128 | 24.1 | 41.8 | 0.00 | 0.00 | 0.00 | 23 | 1001.0 |
| 20260904083009 | 22 | 138 | 25.7 | 43.5 | 0.00 | 0.00 | 0.00 | 23 | 1001.0 |
| 20260904082503 | 22 | 119 | 20.9 | 43.5 | 0.00 | 0.00 | 0.00 | 22 | 1000.8 |
| 20260904082005 | 22 | 122 | 29.0 | 46.7 | 0.00 | 0.00 | 0.00 | 22 | 1000.9 |
| 20260904081505 | 21 | 113 | 35.4 | 46.7 | 0.00 | 0.00 | 0.00 | 22 | 1000.8 |
| 20260904081002 | 21 | 116 | 22.5 | 35.4 | 0.00 | 0.00 | 0.00 | 24 | 1000.9 |
| 20260904080514 | 21 | 140 | 24.1 | 38.6 | 0.00 | 0.00 | 0.00 | 23 | 1001.0 |
| 20260904080003 | 21 | 143 | 22.5 | 40.2 | 0.00 | 0.00 | 0.00 | 23 | 1000.9 |
| 20260904075501 | 21 | 153 | 27.4 | 41.8 | 0.00 | 0.00 | 0.00 | 23 | 1000.9 |
| 20260904075102 | 21 | 146 | 25.7 | 41.8 | 0.00 | 0.00 | 0.00 | 23 | 1001.0 |
| 20260904074609 | 21 | 120 | 25.7 | 41.8 | 0.00 | 0.00 | 0.00 | 24 | 1000.8 |
| 20260904074059 | 21 | 160 | 30.6 | 38.6 | 0.00 | 0.00 | 0.00 | 23 | 1000.8 |
| 20260904073557 | 21 | 134 | 25.7 | 40.2 | 0.00 | 0.00 | 0.00 | 24 | 1000.8 |
| 20260904073057 | 20 | 146 | 22.5 | 35.4 | 0.00 | 0.00 | 0.00 | 25 | 1000.8 |
| 20260904072556 | 20 | 127 | 24.1 | 35.4 | 0.00 | 0.00 | 0.00 | 25 | 1000.9 |
| 20260904072055 | 20 | 143 | 24.1 | 33.8 | 0.00 | 0.00 | 0.00 | 25 | 1000.8 |
| 20260904071623 | 20 | 127 | 22.5 | 30.6 | 0.00 | 0.00 | 0.00 | 27 | 1000.7 |
| 20260904071054 | 20 | 153 | 17.7 | 40.2 | 0.00 | 0.00 | 0.00 | 26 | 1000.6 |
| 20260904070554 | 21 | 151 | 27.4 | 40.2 | 0.00 | 0.00 | 0.00 | 25 | 1000.5 |
| 20260904070106 | 21 | 143 | 25.7 | 35.4 | 0.00 | 0.00 | 0.00 | 25 | 1000.5 |
| 20260904065551 | 21 | 137 | 20.9 | 41.8 | 0.00 | 0.00 | 0.00 | 24 | 1000.5 |
| 20260904065051 | 21 | 138 | 27.4 | 41.8 | 0.00 | 0.00 | 0.00 | 24 | 1000.5 |
| 20260904064604 | 22 | 138 | 25.7 | 35.4 | 0.00 | 0.00 | 0.00 | 24 | 1000.5 |
| 20260904064052 | 21 | 136 | 24.1 | 32.2 | 0.00 | 0.00 | 0.00 | 23 | 1000.6 |
| 20260904063550 | 22 | 164 | 16.1 | 37.0 | 0.00 | 0.00 | 0.00 | 22 | 1000.6 |
| 20260904063054 | 22 | 138 | 24.1 | 37.0 | 0.00 | 0.00 | 0.00 | 22 | 1000.6 |
| 20260904062551 | 22 | 136 | 22.5 | 35.4 | 0.00 | 0.00 | 0.00 | 23 | 1000.6 |
| 20260904062047 | 22 | 153 | 22.5 | 35.4 | 0.00 | 0.00 | 0.00 | 23 | 1000.5 |
| 20260904061547 | 22 | 165 | 22.5 | 33.8 | 0.00 | 0.00 | 0.00 | 23 | 1000.5 |
| 20260904061047 | 22 | 134 | 24.1 | 33.8 | 0.00 | 0.00 | 0.00 | 23 | 1000.6 |
| 20260904060545 | 21 | 144 | 20.9 | 32.2 | 0.00 | 0.00 | 0.00 | 24 | 1000.5 |
| 20260904060044 | 21 | 153 | 22.5 | 30.6 | 0.00 | 0.00 | 0.00 | 27 | 1000.5 |
| 20260904055544 | 20 | 145 | 19.3 | 32.2 | 0.00 | 0.00 | 0.00 | 26 | 1000.6 |
| 20260904055040 | 21 | 143 | 19.3 | 45.1 | 0.00 | 0.00 | 0.00 | 26 | 1000.5 |
| 20260904054539 | 22 | 143 | 27.4 | 45.1 | 0.00 | 0.00 | 0.00 | 24 | 1000.6 |
| 20260904054038 | 22 | 126 | 22.5 | 41.8 | 0.00 | 0.00 | 0.00 | 26 | 1000.5 |
| 20260904053536 | 22 | 129 | 30.6 | 41.8 | 0.00 | 0.00 | 0.00 | 25 | 1000.6 |
| 20260904053042 | 22 | 128 | 24.1 | 35.4 | 0.00 | 0.00 | 0.00 | 26 | 1000.5 |
| 20260904052537 | 22 | 134 | 24.1 | 45.1 | 0.00 | 0.00 | 0.00 | 26 | 1000.5 |
| 20260904052036 | 22 | 150 | 29.0 | 45.1 | 0.00 | 0.00 | 0.00 | 26 | 1000.4 |
| 20260904051535 | 22 | 145 | 22.5 | 32.2 | 0.00 | 0.00 | 0.00 | 26 | 1000.4 |
| 20260904051034 | 22 | 170 | 19.3 | 41.8 | 0.00 | 0.00 | 0.00 | 24 | 1000.5 |
| 20260904050532 | 22 | 136 | 27.4 | 41.8 | 0.00 | 0.00 | 0.00 | 25 | 1000.5 |
| 20260904050033 | 23 | 160 | 27.4 | 53.1 | 0.00 | 0.00 | 0.00 | 24 | 1000.5 |
| 20260904045529 | 23 | 127 | 27.4 | 40.2 | 0.00 | 0.00 | 0.00 | 24 | 1000.5 |
| 20260904045028 | 23 | 136 | 25.7 | 45.1 | 0.00 | 0.00 | 0.00 | 25 | 1000.5 |
| 20260904044526 | 23 | 145 | 25.7 | 46.7 | 0.00 | 0.00 | 0.00 | 25 | 1000.5 |
| 20260904044024 | 23 | 124 | 30.6 | 46.7 | 0.00 | 0.00 | 0.00 | 26 | 1000.6 |
| 20260904043523 | 23 | 97 | 27.4 | 38.6 | 0.00 | 0.00 | 0.00 | 27 | 1000.5 |
| 20260904043021 | 23 | 144 | 24.1 | 46.7 | 0.00 | 0.00 | 0.00 | 25 | 1000.6 |
| 20260904042521 | 23 | 138 | 25.7 | 37.0 | 0.00 | 0.00 | 0.00 | 25 | 1000.6 |
| 20260904042020 | 23 | 134 | 22.5 | 37.0 | 0.00 | 0.00 | 0.00 | 26 | 1000.5 |
| 20260904041524 | 23 | 113 | 27.4 | 35.4 | 0.00 | 0.00 | 0.00 | 25 | 1000.5 |
| 20260904041015 | 23 | 149 | 24.1 | 40.2 | 0.00 | 0.00 | 0.00 | 25 | 1000.4 |
| 20260904040518 | 23 | 134 | 25.7 | 48.3 | 0.00 | 0.00 | 0.00 | 25 | 1000.4 |